• en France
  • Liste des pays
  • À 7 jours
  • Température de l'eau
  • Carte satellitaire
  • Carte météo
  • Widgets météo
  • user-avatar
    Se connecter

    Météo par heure à Folkern

    Ce jour, 19 Octobre, Vendredi

    Heure Température Précipitation Vent Pression Humidité
    00:00 +9°C° 0.1 mm 13 m/s 762 mmHg 75%
    01:00 +9°C° 0.4 mm 14 m/s 761 mmHg 77%
    02:00 +9°C° 0.4 mm 14 m/s 761 mmHg 78%
    03:00 +9°C° 0.4 mm 15 m/s 760 mmHg 80%
    04:00 +9°C° 1.1 mm 14 m/s 760 mmHg 83%
    05:00 +9°C° 1.1 mm 14 m/s 760 mmHg 86%
    06:00 +10°C° 1.1 mm 13 m/s 760 mmHg 89%
    07:00 +9°C° 0.5 mm 12 m/s 760 mmHg 84%
    08:00 +9°C° 0.5 mm 11 m/s 760 mmHg 79%
    09:00 +10°C° 0.5 mm 9 m/s 761 mmHg 75%
    10:00 +10°C° 0 mm 9 m/s 762 mmHg 72%
    11:00 +11°C° 0 mm 8 m/s 762 mmHg 70%
    12:00 +11°C° 0 mm 8 m/s 763 mmHg 67%
    13:00 +11°C° 0 mm 7 m/s 764 mmHg 67%
    14:00 +11°C° 0 mm 7 m/s 764 mmHg 68%
    15:00 +10°C° 0 mm 6 m/s 764 mmHg 68%
    16:00 +10°C° 0 mm 6 m/s 765 mmHg 70%
    17:00 +10°C° 0 mm 6 m/s 765 mmHg 72%
    18:00 +9°C° 0 mm 5 m/s 765 mmHg 74%
    19:00 +9°C° 0 mm 6 m/s 765 mmHg 75%
    20:00 +9°C° 0 mm 6 m/s 766 mmHg 75%
    21:00 +9°C° 0 mm 6 m/s 766 mmHg 76%
    22:00 +10°C° 0 mm 7 m/s 766 mmHg 77%
    23:00 +10°C° 0 mm 7 m/s 766 mmHg 77%

    Demain, 20 Octobre, Samedi

    Heure Température Précipitation Vent Pression Humidité
    00:00 +10°C° 0 mm 8 m/s 766 mmHg 78%
    01:00 +10°C° 0 mm 9 m/s 765 mmHg 80%
    02:00 +9°C° 0 mm 10 m/s 765 mmHg 82%
    03:00 +9°C° 0 mm 10 m/s 764 mmHg 84%
    04:00 +11°C° 0.4 mm 11 m/s 764 mmHg 87%
    05:00 +11°C° 0.4 mm 11 m/s 764 mmHg 90%
    06:00 +12°C° 0.4 mm 12 m/s 763 mmHg 93%
    07:00 +12°C° 0.5 mm 12 m/s 763 mmHg 93%
    08:00 +12°C° 0.5 mm 12 m/s 763 mmHg 93%
    09:00 +12°C° 0.5 mm 12 m/s 763 mmHg 94%
    10:00 +12°C° 0.1 mm 12 m/s 763 mmHg 94%
    11:00 +13°C° 0.1 mm 11 m/s 763 mmHg 95%
    12:00 +13°C° 0.1 mm 11 m/s 764 mmHg 95%
    13:00 +13°C° 0.1 mm 11 m/s 763 mmHg 95%
    14:00 +13°C° 0.1 mm 11 m/s 763 mmHg 95%
    15:00 +13°C° 0.1 mm 11 m/s 763 mmHg 95%
    16:00 +13°C° 0.1 mm 12 m/s 763 mmHg 94%
    17:00 +13°C° 0.1 mm 12 m/s 763 mmHg 94%
    18:00 +13°C° 0.1 mm 12 m/s 763 mmHg 94%
    19:00 +13°C° 0.2 mm 11 m/s 763 mmHg 95%
    20:00 +13°C° 0.2 mm 11 m/s 763 mmHg 95%
    21:00 +13°C° 0.2 mm 10 m/s 763 mmHg 95%
    22:00 +12°C° 0.4 mm 10 m/s 763 mmHg 94%
    23:00 +12°C° 0.4 mm 9 m/s 763 mmHg 93%

    Après-demain, 21 Octobre, Dimanche

    Heure Température Précipitation Vent Pression Humidité
    00:00 +12°C° 0.4 mm 8 m/s 763 mmHg 93%
    01:00 +11°C° 0.9 mm 9 m/s 763 mmHg 90%
    02:00 +10°C° 0.9 mm 9 m/s 763 mmHg 88%
    03:00 +8°C° 0.9 mm 9 m/s 762 mmHg 86%
    04:00 +8°C° 1 mm 10 m/s 763 mmHg 86%
    05:00 +8°C° 1 mm 10 m/s 763 mmHg 87%
    06:00 +8°C° 1 mm 11 m/s 763 mmHg 87%
    07:00 +8°C° 0.7 mm 11 m/s 763 mmHg 83%
    08:00 +8°C° 0.7 mm 11 m/s 764 mmHg 80%
    09:00 +8°C° 0.7 mm 12 m/s 764 mmHg 76%
    10:00 +8°C° 0.1 mm 12 m/s 765 mmHg 72%
    11:00 +8°C° 0.1 mm 12 m/s 766 mmHg 68%
    12:00 +8°C° 0.1 mm 13 m/s 766 mmHg 64%
    13:00 +8°C° 0.2 mm 13 m/s 766 mmHg 63%
    14:00 +6°C° 0.2 mm 14 m/s 767 mmHg 63%
    15:00 +6°C° 0.2 mm 15 m/s 767 mmHg 62%
    16:00 +6°C° 0.1 mm 15 m/s 768 mmHg 61%
    17:00 +6°C° 0.1 mm 15 m/s 768 mmHg 59%
    18:00 +6°C° 0.1 mm 15 m/s 769 mmHg 58%
    19:00 +6°C° 0.2 mm 15 m/s 769 mmHg 59%
    20:00 +6°C° 0.2 mm 14 m/s 770 mmHg 60%
    21:00 +6°C° 0.2 mm 14 m/s 771 mmHg 62%
    22:00 +6°C° 0.1 mm 14 m/s 771 mmHg 62%
    23:00 +6°C° 0.1 mm 14 m/s 771 mmHg 61%

    22 Octobre, Lundi

    Heure Température Précipitation Vent Pression Humidité
    00:00 +7°C° 0.1 mm 13 m/s 772 mmHg 61%
    01:00 +7°C° 0.1 mm 13 m/s 772 mmHg 63%
    02:00 +7°C° 0.1 mm 13 m/s 772 mmHg 64%
    03:00 +7°C° 0.1 mm 13 m/s 773 mmHg 66%
    04:00 +7°C° 0.1 mm 13 m/s 773 mmHg 69%
    05:00 +7°C° 0.1 mm 12 m/s 773 mmHg 71%
    06:00 +8°C° 0.1 mm 12 m/s 773 mmHg 74%
    07:00 +8°C° 0.3 mm 13 m/s 773 mmHg 76%
    08:00 +8°C° 0.3 mm 13 m/s 773 mmHg 79%
    09:00 +8°C° 0.3 mm 14 m/s 773 mmHg 81%
    10:00 +9°C° 0.4 mm 15 m/s 773 mmHg 81%
    11:00 +9°C° 0.4 mm 15 m/s 773 mmHg 81%
    12:00 +9°C° 0.4 mm 15 m/s 773 mmHg 82%
    13:00 +9°C° 0.1 mm 15 m/s 773 mmHg 82%
    14:00 +9°C° 0.1 mm 14 m/s 773 mmHg 82%
    15:00 +9°C° 0.1 mm 14 m/s 773 mmHg 82%
    16:00 +9°C° 0.1 mm 13 m/s 774 mmHg 82%
    17:00 +9°C° 0.1 mm 13 m/s 774 mmHg 82%
    18:00 +9°C° 0.1 mm 12 m/s 774 mmHg 83%
    19:00 +9°C° 0.1 mm 12 m/s 775 mmHg 83%
    20:00 +9°C° 0.1 mm 12 m/s 775 mmHg 83%
    21:00 +9°C° 0.1 mm 11 m/s 775 mmHg 83%
    22:00 +9°C° 0.1 mm 11 m/s 775 mmHg 83%
    23:00 +9°C° 0.1 mm 11 m/s 775 mmHg 82%

    23 Octobre, Mardi

    Heure Température Précipitation Vent Pression Humidité
    00:00 +9°C° 0.1 mm 11 m/s 775 mmHg 82%
    01:00 +9°C° 0 mm 11 m/s 775 mmHg 83%
    02:00 +9°C° 0 mm 11 m/s 775 mmHg 83%
    03:00 +9°C° 0 mm 10 m/s 774 mmHg 84%
    04:00 +9°C° 0 mm 11 m/s 774 mmHg 84%
    05:00 +9°C° 0 mm 11 m/s 774 mmHg 83%
    06:00 +9°C° 0 mm 11 m/s 774 mmHg 83%
    07:00 +9°C° 0 mm 11 m/s 774 mmHg 83%
    08:00 +9°C° 0 mm 10 m/s 774 mmHg 84%
    09:00 +9°C° 0 mm 10 m/s 774 mmHg 84%
    10:00 +9°C° 0 mm 10 m/s 774 mmHg 84%
    11:00 +9°C° 0 mm 10 m/s 774 mmHg 85%
    12:00 +9°C° 0 mm 10 m/s 774 mmHg 85%
    13:00 +9°C° 0 mm 10 m/s 774 mmHg 86%
    14:00 +9°C° 0 mm 10 m/s 774 mmHg 87%
    15:00 +10°C° 0 mm 9 m/s 774 mmHg 88%
    16:00 +10°C° 0 mm 9 m/s 774 mmHg 89%
    17:00 +10°C° 0 mm 9 m/s 774 mmHg 89%
    18:00 +10°C° 0 mm 9 m/s 774 mmHg 90%
    19:00 +10°C° 0 mm 9 m/s 774 mmHg 90%
    20:00 +10°C° 0 mm 9 m/s 774 mmHg 91%
    21:00 +10°C° 0 mm 8 m/s 774 mmHg 91%
    22:00 +10°C° 0 mm 8 m/s 774 mmHg 90%
    23:00 +10°C° 0 mm 8 m/s 774 mmHg 88%

    24 Octobre, Mercredi

    Heure Température Précipitation Vent Pression Humidité
    00:00 +10°C° 0 mm 8 m/s 774 mmHg 87%
    01:00 +9°C° 0 mm 8 m/s 774 mmHg 87%
    02:00 +9°C° 0 mm 8 m/s 774 mmHg 88%
    03:00 +9°C° 0 mm 8 m/s 774 mmHg 88%
    04:00 +9°C° 0 mm 8 m/s 774 mmHg 88%
    05:00 +9°C° 0 mm 8 m/s 774 mmHg 88%
    06:00 +9°C° 0 mm 8 m/s 774 mmHg 88%
    07:00 +9°C° 0 mm 8 m/s 774 mmHg 87%
    08:00 +9°C° 0 mm 8 m/s 774 mmHg 87%
    09:00 +9°C° 0 mm 8 m/s 774 mmHg 86%
    10:00 +9°C° 0 mm 7 m/s 774 mmHg 86%
    11:00 +9°C° 0 mm 7 m/s 774 mmHg 85%
    12:00 +9°C° 0 mm 7 m/s 774 mmHg 85%
    13:00 +9°C° 0 mm 7 m/s 774 mmHg 85%
    14:00 +9°C° 0 mm 7 m/s 774 mmHg 84%
    15:00 +9°C° 0 mm 6 m/s 773 mmHg 84%
    16:00 +9°C° 0 mm 6 m/s 773 mmHg 84%
    17:00 +9°C° 0 mm 6 m/s 773 mmHg 85%
    18:00 +9°C° 0 mm 6 m/s 773 mmHg 85%
    19:00 +9°C° 0 mm 6 m/s 773 mmHg 85%
    20:00 +9°C° 0 mm 6 m/s 773 mmHg 85%
    21:00 +9°C° 0 mm 6 m/s 773 mmHg 85%
    22:00 +9°C° 0 mm 6 m/s 773 mmHg 85%
    23:00 +9°C° 0 mm 6 m/s 773 mmHg 84%
    Voir plus